CYAS

Kangirsuk Airport

ICAO Code CYAS
IATA Code YKG
Name Kangirsuk Airport
Location Kangirsuk, Quebec, CA
Elevation 406 Feet / 123.7 Meters
Latitude 60.02722222
Longitude -69.99916667
METAR CYAS 252100Z 28015KT 15SM SCT130 01/M02 A2995 RMK AC4 LAST STFD OBS NEXT 261200UTC SLP154
Extra information Display Charts and CFS
Display NOTAMS
Runway Length Width Surface Elevation
03 3521 ft 100 ft GRAVEL 342 ft
21 3521 ft 100 ft GRAVEL 406 ft